Location: New Mesquite
(33.1168°N, 96.4336°W)
Time: 02:18:54
(UTC+00:00)

Cosmos 1538 Rocket - Visible Passes

Search period start: 30 June 2022 00:00
Search period end: 10 July 2022 00:00
Orbit: 752 x 791 km, 74.0° (Epoch: 29 June)

Date Brightness Start Highest point End Pass type
(mag) Time Alt. Az. Time Alt. Az. Time Alt. Az.
02 Jul 5.6 10:37:24 10° SSE 10:42:09 35° E 10:46:51 10° NE visible
03 Jul 6.4 10:02:40 10° SE 10:06:23 20° E 10:10:05 10° NE visible
04 Jul 6.8 09:29:46 10° ESE 09:30:43 10° E 09:31:40 10° E visible
05 Jul 4.3 10:31:02 10° S 10:36:14 69° ESE 10:41:25 10° NNE visible
06 Jul 5.3 09:55:36 10° SSE 10:00:23 38° E 10:05:10 10° NE visible
07 Jul 6.1 09:20:45 10° SE 09:24:38 21° E 09:28:29 10° NE visible
08 Jul 6.6 08:47:20 10° ESE 08:48:56 11° E 08:50:33 10° ENE visible
08 Jul 4.1 10:25:33 12° SSW 10:30:26 63° WNW 10:35:36 10° N visible
09 Jul 4.1 09:50:46 19° S 09:54:30 74° ESE 09:59:41 10° NNE visible
